Tracking 27112 objects as of 27-Mar-2023
HD Live streaming from Space Station
objects crossing your sky now

STARLINK-1793

Track STARLINK-1793 now!
10-day predictions
STARLINK-1793 is classified as:


NORAD ID: 46694
Int'l Code: 2020-073AA
Perigee: 553.6 km
Apogee: 555.4 km
Inclination: 53.1 °
Period: 95.6 minutes
Semi major axis: 6925 km
RCS: Unknown
Launch date: October 18, 2020
Source: United States (US)
Launch site: AIR FORCE EASTERN TEST RANGE (AFETR)
Your satellite tracking list
Your tracking list is empty




NASA's NSSDC Master Catalog

Two Line Element Set (TLE):
1 46694U 20073AA  23085.11405303  .00003997  00000-0  28744-3 0  9992
2 46694  53.0552  28.0202 0001254  99.8997 260.2134 15.06346786134695
Source of the keplerian elements: AFSPC